Time,TemperatureF,DewpointF,PressureIn,WindDirection,WindDirectionDegrees,WindSpeedMPH,WindSpeedGustMPH,Humidity,HourlyPrecipIn,Conditions,Clouds,dailyrainin,SoftwareType,DateUTC
2013-05-15 00:02:00,36.7,32.9,30.07,North,0,0.0,0.0,86,0.00,,,0.00,pywws,2013-05-15 04:02:00,
2013-05-15 00:09:00,36.7,33.2,30.07,North,0,0.0,0.0,87,0.00,,,0.00,pywws,2013-05-15 04:09:00,
2013-05-15 00:10:00,36.7,33.2,30.08,North,0,0.0,0.0,87,0.00,,,0.00,pywws,2013-05-15 04:10:00,
2013-05-15 00:11:00,36.7,33.2,30.08,North,0,0.0,0.0,87,0.00,,,0.00,pywws,2013-05-15 04:11:00,
2013-05-15 00:13:00,36.5,33.3,30.08,North,0,0.0,0.0,88,0.00,,,0.00,pywws,2013-05-15 04:13:00,
2013-05-15 00:19:00,36.5,33.3,30.07,North,0,0.0,0.0,88,0.00,,,0.00,pywws,2013-05-15 04:19:00,
2013-05-15 00:24:00,36.1,33.2,30.08,North,0,0.0,0.0,89,0.00,,,0.00,pywws,2013-05-15 04:24:00,
2013-05-15 00:30:00,36.0,33.0,30.08,North,0,0.0,0.0,89,0.00,,,0.00,pywws,2013-05-15 04:30:00,
2013-05-15 00:36:00,35.6,32.7,30.08,North,0,0.0,0.0,89,0.00,,,0.00,pywws,2013-05-15 04:36:00,
2013-05-15 00:43:00,35.4,33.1,30.07,North,0,0.0,0.0,91,0.00,,,0.00,pywws,2013-05-15 04:43:00,
2013-05-15 00:49:00,35.2,32.9,30.08,North,0,0.0,0.0,91,0.00,,,0.00,pywws,2013-05-15 04:49:00,
2013-05-15 00:55:00,35.1,32.7,30.07,North,0,0.0,0.0,91,0.00,,,0.00,pywws,2013-05-15 04:55:00,
2013-05-15 01:01:00,34.9,32.8,30.07,North,0,0.0,0.0,92,0.00,,,0.00,pywws,2013-05-15 05:01:00,
2013-05-15 01:07:00,35.1,33.0,30.07,North,0,0.0,0.0,92,0.00,,,0.00,pywws,2013-05-15 05:07:00,
2013-05-15 01:14:00,34.5,32.4,30.07,North,0,0.0,0.0,92,0.00,,,0.00,pywws,2013-05-15 05:14:00,
2013-05-15 01:19:00,34.5,32.4,30.07,North,0,0.0,0.0,92,0.00,,,0.00,pywws,2013-05-15 05:19:00,
2013-05-15 01:25:00,34.2,32.1,30.07,North,0,0.0,0.0,92,0.00,,,0.00,pywws,2013-05-15 05:25:00,
2013-05-15 01:31:00,34.0,31.9,30.07,North,0,0.0,0.0,92,0.00,,,0.00,pywws,2013-05-15 05:31:00,
2013-05-15 01:39:00,33.8,32.0,30.07,North,0,0.0,0.0,93,0.00,,,0.00,pywws,2013-05-15 05:39:00,
2013-05-15 01:47:00,34.0,32.2,30.07,North,0,0.0,0.0,93,0.00,,,0.00,pywws,2013-05-15 05:47:00,
2013-05-15 01:53:00,33.8,32.0,30.07,North,0,0.0,0.0,93,0.00,,,0.00,pywws,2013-05-15 05:53:00,
2013-05-15 01:59:00,33.4,31.9,30.07,North,0,0.0,0.0,94,0.00,,,0.00,pywws,2013-05-15 05:59:00,
2013-05-15 02:05:00,33.6,32.1,30.06,North,0,0.0,0.0,94,0.00,,,0.00,pywws,2013-05-15 06:05:00,
2013-05-15 02:11:00,33.3,31.7,30.07,North,0,0.0,0.0,94,0.00,,,0.00,pywws,2013-05-15 06:11:00,
2013-05-15 02:16:00,33.3,31.7,30.06,North,0,0.0,0.0,94,0.00,,,0.00,pywws,2013-05-15 06:16:00,
2013-05-15 02:23:00,33.1,31.8,30.07,North,0,0.0,0.0,95,0.00,,,0.00,pywws,2013-05-15 06:23:00,
2013-05-15 02:28:00,32.7,31.2,30.07,North,0,0.0,0.0,94,0.00,,,0.00,pywws,2013-05-15 06:28:00,
2013-05-15 02:34:00,32.7,31.4,30.06,North,0,0.0,0.0,95,0.00,,,0.00,pywws,2013-05-15 06:34:00,
2013-05-15 02:39:00,32.5,31.3,30.07,North,0,0.0,0.0,95,0.00,,,0.00,pywws,2013-05-15 06:39:00,
2013-05-15 02:47:00,32.5,31.3,30.07,North,0,0.0,0.0,95,0.00,,,0.00,pywws,2013-05-15 06:47:00,
2013-05-15 02:52:00,32.7,31.4,30.07,North,0,0.0,0.0,95,0.00,,,0.00,pywws,2013-05-15 06:52:00,
2013-05-15 02:58:00,32.7,31.4,30.07,North,0,0.0,0.0,95,0.00,,,0.00,pywws,2013-05-15 06:58:00,
2013-05-15 03:03:00,32.5,31.3,30.07,North,0,0.0,0.0,95,0.00,,,0.00,pywws,2013-05-15 07:03:00,
2013-05-15 03:09:00,32.5,31.3,30.07,North,0,0.0,0.0,95,0.00,,,0.00,pywws,2013-05-15 07:09:00,
2013-05-15 03:15:00,32.4,31.1,30.07,North,0,0.0,0.0,95,0.00,,,0.00,pywws,2013-05-15 07:15:00,
2013-05-15 03:21:00,32.2,30.9,30.07,North,0,0.0,0.0,95,0.00,,,0.00,pywws,2013-05-15 07:21:00,
2013-05-15 03:27:00,32.2,30.9,30.07,North,0,0.0,0.0,95,0.00,,,0.00,pywws,2013-05-15 07:27:00,
2013-05-15 03:35:00,32.0,30.7,30.07,North,0,0.0,0.0,95,0.00,,,0.00,pywws,2013-05-15 07:35:00,
2013-05-15 03:40:00,32.2,30.9,30.07,North,0,0.0,0.0,95,0.00,,,0.00,pywws,2013-05-15 07:40:00,
2013-05-15 03:46:00,31.8,31.1,30.07,North,0,0.0,0.0,97,0.00,,,0.00,pywws,2013-05-15 07:46:00,
2013-05-15 03:51:00,31.8,31.1,30.07,North,0,0.0,0.0,97,0.00,,,0.00,pywws,2013-05-15 07:51:00,
2013-05-15 03:57:00,31.6,30.9,30.07,North,0,0.0,0.0,97,0.00,,,0.00,pywws,2013-05-15 07:57:00,
2013-05-15 04:03:00,31.6,30.9,30.07,North,0,0.0,0.0,97,0.00,,,0.00,pywws,2013-05-15 08:03:00,
2013-05-15 04:08:00,31.5,30.7,30.06,North,0,0.0,0.0,97,0.00,,,0.00,pywws,2013-05-15 08:08:00,
2013-05-15 04:14:00,31.1,30.3,30.06,North,0,0.0,0.0,97,0.00,,,0.00,pywws,2013-05-15 08:14:00,
2013-05-15 04:19:00,31.1,30.3,30.06,North,0,0.0,0.0,97,0.00,,,0.00,pywws,2013-05-15 08:19:00,
2013-05-15 04:27:00,30.7,30.0,30.06,North,0,0.0,0.0,97,0.00,,,0.00,pywws,2013-05-15 08:27:00,
2013-05-15 04:32:00,30.4,29.6,30.06,North,0,0.0,0.0,97,0.00,,,0.00,pywws,2013-05-15 08:32:00,
2013-05-15 04:38:00,30.7,30.0,30.06,North,0,0.0,0.0,97,0.00,,,0.00,pywws,2013-05-15 08:38:00,
2013-05-15 04:44:00,30.7,30.0,30.06,North,0,0.0,0.0,97,0.00,,,0.00,pywws,2013-05-15 08:44:00,
2013-05-15 04:50:00,30.7,30.0,30.06,North,0,0.0,0.0,97,0.00,,,0.00,pywws,2013-05-15 08:50:00,
2013-05-15 04:55:00,30.7,30.0,30.06,North,0,0.0,0.0,97,0.00,,,0.00,pywws,2013-05-15 08:55:00,
2013-05-15 05:01:00,30.9,30.2,30.06,North,0,0.0,0.0,97,0.00,,,0.00,pywws,2013-05-15 09:01:00,
2013-05-15 05:07:00,30.7,30.0,30.06,North,0,0.0,0.0,97,0.00,,,0.00,pywws,2013-05-15 09:07:00,
2013-05-15 05:13:00,30.4,29.6,30.06,North,0,0.0,0.0,97,0.00,,,0.00,pywws,2013-05-15 09:13:00,
2013-05-15 05:19:00,30.4,29.6,30.06,North,0,0.0,0.0,97,0.00,,,0.00,pywws,2013-05-15 09:19:00,
2013-05-15 05:25:00,30.6,29.8,30.06,North,0,0.0,0.0,97,0.00,,,0.00,pywws,2013-05-15 09:25:00,
2013-05-15 05:31:00,30.6,29.8,30.06,North,0,0.0,0.0,97,0.00,,,0.00,pywws,2013-05-15 09:31:00,
2013-05-15 05:36:00,30.6,29.8,30.06,North,0,0.0,0.0,97,0.00,,,0.00,pywws,2013-05-15 09:36:00,
2013-05-15 05:42:00,30.4,29.6,30.06,North,0,0.0,0.0,97,0.00,,,0.00,pywws,2013-05-15 09:42:00,
2013-05-15 05:47:00,30.4,29.6,30.06,North,0,0.0,0.0,97,0.00,,,0.00,pywws,2013-05-15 09:47:00,
2013-05-15 05:53:00,30.7,30.0,30.06,North,0,0.0,0.0,97,0.00,,,0.00,pywws,2013-05-15 09:53:00,
2013-05-15 05:59:00,30.7,30.0,30.06,North,0,0.0,0.0,97,0.00,,,0.00,pywws,2013-05-15 09:59:00,
2013-05-15 06:04:00,30.9,30.2,30.06,North,0,0.0,0.0,97,0.00,,,0.00,pywws,2013-05-15 10:04:00,
2013-05-15 06:11:00,31.5,31.0,30.06,North,0,0.0,0.0,98,0.00,,,0.00,pywws,2013-05-15 10:11:00,
2013-05-15 06:17:00,31.6,31.1,30.06,North,0,0.0,0.0,98,0.00,,,0.00,pywws,2013-05-15 10:17:00,
2013-05-15 06:23:00,32.4,31.6,30.06,North,0,0.0,0.0,97,0.00,,,0.00,pywws,2013-05-15 10:23:00,
2013-05-15 06:29:00,32.5,31.8,30.06,North,0,0.0,0.0,97,0.00,,,0.00,pywws,2013-05-15 10:29:00,
2013-05-15 06:35:00,33.1,32.3,30.06,North,0,0.0,0.0,97,0.00,,,0.00,pywws,2013-05-15 10:35:00,
2013-05-15 06:41:00,33.8,33.0,30.06,North,0,0.0,0.0,97,0.00,,,0.00,pywws,2013-05-15 10:41:00,
2013-05-15 06:47:00,34.3,33.6,30.05,North,0,0.0,0.0,97,0.00,,,0.00,pywws,2013-05-15 10:47:00,
2013-05-15 06:52:00,35.4,34.7,30.05,North,0,0.0,0.0,97,0.00,,,0.00,pywws,2013-05-15 10:52:00,
2013-05-15 06:58:00,37.4,37.1,30.05,North,0,0.0,0.0,99,0.00,,,0.00,pywws,2013-05-15 10:58:00,
2013-05-15 07:03:00,40.1,39.8,30.06,North,0,0.0,0.0,99,0.00,,,0.00,pywws,2013-05-15 11:03:00,
2013-05-15 07:09:00,42.3,42.0,30.06,North,0,0.0,0.0,99,0.00,,,0.00,pywws,2013-05-15 11:09:00,
2013-05-15 07:15:00,45.1,44.3,30.05,North,0,0.0,0.0,97,0.00,,,0.00,pywws,2013-05-15 11:15:00,
2013-05-15 07:21:00,46.0,45.2,30.06,North,0,0.0,0.0,97,0.00,,,0.00,pywws,2013-05-15 11:21:00,
2013-05-15 07:26:00,46.6,44.4,30.05,North,0,0.0,0.0,92,0.00,,,0.00,pywws,2013-05-15 11:26:00,
2013-05-15 07:31:00,52.2,46.8,30.05,North,0,0.0,0.0,82,0.00,,,0.00,pywws,2013-05-15 11:31:00,
2013-05-15 07:38:00,50.0,41.0,30.05,North,0,0.0,0.0,71,0.00,,,0.00,pywws,2013-05-15 11:38:00,
2013-05-15 07:43:00,55.4,43.8,30.05,North,0,0.0,0.0,65,0.00,,,0.00,pywws,2013-05-15 11:43:00,
2013-05-15 07:49:00,56.7,42.5,30.05,North,0,0.0,0.0,59,0.00,,,0.00,pywws,2013-05-15 11:49:00,
2013-05-15 07:54:00,56.7,41.1,30.05,North,0,0.0,0.0,56,0.00,,,0.00,pywws,2013-05-15 11:54:00,
2013-05-15 08:00:00,58.1,42.0,30.05,North,0,0.0,0.0,55,0.00,,,0.00,pywws,2013-05-15 12:00:00,
2013-05-15 08:05:00,58.3,41.2,30.04,North,0,0.0,0.0,53,0.00,,,0.00,pywws,2013-05-15 12:05:00,
2013-05-15 08:10:00,58.5,41.4,30.04,North,0,0.0,0.0,53,0.00,,,0.00,pywws,2013-05-15 12:10:00,
2013-05-15 08:15:00,59.0,39.9,30.04,North,0,0.0,0.0,49,0.00,,,0.00,pywws,2013-05-15 12:15:00,
2013-05-15 08:21:00,58.8,38.6,30.04,SE,135,0.0,0.0,47,0.00,,,0.00,pywws,2013-05-15 12:21:00,
2013-05-15 08:27:00,59.9,39.6,30.04,South,180,0.0,0.0,47,0.00,,,0.00,pywws,2013-05-15 12:27:00,
2013-05-15 08:32:00,60.1,38.7,30.04,North,0,0.0,0.0,45,0.00,,,0.00,pywws,2013-05-15 12:32:00,
2013-05-15 08:38:00,59.7,37.8,30.04,South,180,0.0,0.0,44,0.00,,,0.00,pywws,2013-05-15 12:38:00,
2013-05-15 08:43:00,58.5,36.0,30.03,South,180,0.0,0.0,43,0.00,,,0.00,pywws,2013-05-15 12:43:00,
2013-05-15 08:48:00,59.9,37.3,30.03,East,90,0.0,0.0,43,0.00,,,0.00,pywws,2013-05-15 12:48:00,
2013-05-15 08:54:00,61.3,38.0,30.02,South,180,0.0,0.0,42,0.00,,,0.00,pywws,2013-05-15 12:54:00,
2013-05-15 08:59:00,59.7,34.7,30.02,South,180,0.0,0.0,39,0.00,,,0.00,pywws,2013-05-15 12:59:00,
2013-05-15 09:06:00,59.7,36.0,30.01,West,270,0.0,0.0,41,0.00,,,0.00,pywws,2013-05-15 13:06:00,
2013-05-15 09:11:00,60.8,35.7,30.02,South,180,0.0,0.0,39,0.00,,,0.00,pywws,2013-05-15 13:11:00,
2013-05-15 09:16:00,60.8,31.5,30.02,West,270,0.0,0.0,33,0.00,,,0.00,pywws,2013-05-15 13:16:00,
2013-05-15 09:22:00,60.6,32.1,30.01,East,90,0.0,0.0,34,0.00,,,0.00,pywws,2013-05-15 13:22:00,
2013-05-15 09:27:00,61.5,33.6,30.01,West,270,0.0,0.0,35,0.00,,,0.00,pywws,2013-05-15 13:27:00,
2013-05-15 09:34:00,62.2,35.6,30.01,East,90,0.0,0.0,37,0.00,,,0.00,pywws,2013-05-15 13:34:00,
2013-05-15 09:39:00,59.9,32.2,30.01,West,270,0.0,0.0,35,0.00,,,0.00,pywws,2013-05-15 13:39:00,
2013-05-15 09:45:00,61.5,36.3,30.01,South,180,0.0,0.0,39,0.00,,,0.00,pywws,2013-05-15 13:45:00,
2013-05-15 09:52:00,61.5,35.0,30.01,North,0,0.0,0.0,37,0.00,,,0.00,pywws,2013-05-15 13:52:00,
2013-05-15 09:57:00,64.2,35.3,30.00,South,180,0.0,0.0,34,0.00,,,0.00,pywws,2013-05-15 13:57:00,
2013-05-15 10:03:00,62.2,35.0,30.00,West,270,0.0,0.0,36,0.00,,,0.00,pywws,2013-05-15 14:03:00,
2013-05-15 10:09:00,63.1,35.7,30.00,West,270,0.0,0.0,36,0.00,,,0.00,pywws,2013-05-15 14:09:00,
2013-05-15 10:14:00,62.2,35.6,30.00,West,270,0.0,0.0,37,0.00,,,0.00,pywws,2013-05-15 14:14:00,
2013-05-15 10:19:00,61.9,36.0,30.00,North,0,0.0,0.0,38,0.00,,,0.00,pywws,2013-05-15 14:19:00,
2013-05-15 10:24:00,61.9,35.3,29.99,North,0,0.0,0.0,37,0.00,,,0.00,pywws,2013-05-15 14:24:00,
2013-05-15 10:30:00,61.2,36.0,30.00,SW,225,0.0,0.0,39,0.00,,,0.00,pywws,2013-05-15 14:30:00,
2013-05-15 10:35:00,61.5,37.6,30.00,North,0,0.0,0.0,41,0.00,,,0.00,pywws,2013-05-15 14:35:00,
2013-05-15 10:41:00,61.5,37.6,29.99,SE,135,0.0,0.0,41,0.00,,,0.00,pywws,2013-05-15 14:41:00,
2013-05-15 10:46:00,62.4,39.0,30.00,SW,225,0.0,0.0,42,0.00,,,0.00,pywws,2013-05-15 14:46:00,
2013-05-15 10:51:00,63.3,39.2,30.00,South,180,0.0,1.6,41,0.00,,,0.00,pywws,2013-05-15 14:51:00,
2013-05-15 10:56:00,61.3,38.0,30.00,East,90,0.0,0.0,42,0.00,,,0.00,pywws,2013-05-15 14:56:00,
2013-05-15 11:02:00,63.9,39.7,29.99,NE,45,0.0,1.6,41,0.00,,,0.00,pywws,2013-05-15 15:02:00,
2013-05-15 11:08:00,62.4,39.0,29.99,West,270,0.0,0.0,42,0.00,,,0.00,pywws,2013-05-15 15:08:00,
2013-05-15 11:13:00,62.1,38.7,29.99,NE,45,0.0,0.7,42,0.00,,,0.00,pywws,2013-05-15 15:13:00,
2013-05-15 11:19:00,62.1,39.3,29.99,North,0,0.0,0.0,43,0.00,,,0.00,pywws,2013-05-15 15:19:00,
2013-05-15 11:24:00,64.6,41.0,29.99,NE,45,0.0,0.0,42,0.00,,,0.00,pywws,2013-05-15 15:24:00,
2013-05-15 11:30:00,63.9,39.7,29.98,South,180,0.0,0.7,41,0.00,,,0.00,pywws,2013-05-15 15:30:00,
2013-05-15 11:35:00,64.2,40.0,29.98,West,270,0.0,0.7,41,0.00,,,0.00,pywws,2013-05-15 15:35:00,
2013-05-15 11:41:00,62.4,37.1,29.98,West,270,0.0,0.7,39,0.00,,,0.00,pywws,2013-05-15 15:41:00,
2013-05-15 11:47:00,63.9,37.1,29.98,SE,135,1.6,4.5,37,0.00,,,0.00,pywws,2013-05-15 15:47:00,
2013-05-15 11:52:00,63.9,37.1,29.97,SW,225,0.0,0.0,37,0.00,,,0.00,pywws,2013-05-15 15:52:00,
2013-05-15 11:57:00,66.0,41.6,29.97,West,270,0.0,0.7,41,0.00,,,0.00,pywws,2013-05-15 15:57:00,
2013-05-15 12:03:00,63.5,36.8,29.97,West,270,0.0,0.7,37,0.00,,,0.00,pywws,2013-05-15 16:03:00,
2013-05-15 12:08:00,63.0,36.3,29.97,West,270,0.0,0.0,37,0.00,,,0.00,pywws,2013-05-15 16:08:00,
2013-05-15 12:13:00,63.3,37.9,29.96,South,180,0.0,0.0,39,0.00,,,0.00,pywws,2013-05-15 16:13:00,
2013-05-15 12:19:00,64.8,39.2,29.96,West,270,0.0,0.7,39,0.00,,,0.00,pywws,2013-05-15 16:19:00,
2013-05-15 12:24:00,62.1,36.2,29.96,SW,225,0.0,0.0,38,0.00,,,0.00,pywws,2013-05-15 16:24:00,
2013-05-15 12:29:00,64.9,41.3,29.96,SW,225,1.6,5.4,42,0.00,,,0.00,pywws,2013-05-15 16:29:00,
2013-05-15 12:35:00,64.4,40.8,29.96,NW,315,0.0,0.0,42,0.00,,,0.00,pywws,2013-05-15 16:35:00,
2013-05-15 12:40:00,63.7,40.2,29.96,East,90,0.0,0.0,42,0.00,,,0.00,pywws,2013-05-15 16:40:00,
2013-05-15 12:46:00,62.6,40.4,29.96,West,270,0.0,1.6,44,0.00,,,0.00,pywws,2013-05-15 16:46:00,
2013-05-15 12:51:00,63.1,40.9,29.96,South,180,0.0,0.0,44,0.00,,,0.00,pywws,2013-05-15 16:51:00,
2013-05-15 12:57:00,62.4,39.6,29.95,North,0,0.0,0.0,43,0.00,,,0.00,pywws,2013-05-15 16:57:00,
2013-05-15 13:02:00,62.8,40.5,29.94,SW,225,0.0,2.2,44,0.00,,,0.00,pywws,2013-05-15 17:02:00,
2013-05-15 13:08:00,63.1,39.7,29.93,East,90,0.7,3.8,42,0.00,,,0.00,pywws,2013-05-15 17:08:00,
2013-05-15 13:14:00,66.6,42.1,29.93,West,270,0.0,0.7,41,0.00,,,0.00,pywws,2013-05-15 17:14:00,
2013-05-15 13:19:00,69.8,44.4,29.93,SW,225,0.0,0.0,40,0.00,,,0.00,pywws,2013-05-15 17:19:00,
2013-05-15 13:24:00,68.4,41.1,29.93,NW,315,0.0,0.0,37,0.00,,,0.00,pywws,2013-05-15 17:24:00,
2013-05-15 13:30:00,67.5,40.3,29.93,North,0,0.0,0.0,37,0.00,,,0.00,pywws,2013-05-15 17:30:00,
2013-05-15 13:35:00,65.8,40.2,29.92,South,180,0.0,0.0,39,0.00,,,0.00,pywws,2013-05-15 17:35:00,
2013-05-15 13:41:00,68.4,41.8,29.91,South,180,0.7,5.4,38,0.00,,,0.00,pywws,2013-05-15 17:41:00,
2013-05-15 13:46:00,69.4,42.0,29.91,North,0,0.0,0.7,37,0.00,,,0.00,pywws,2013-05-15 17:46:00,
2013-05-15 13:51:00,68.2,40.2,29.90,SW,225,0.0,0.0,36,0.00,,,0.00,pywws,2013-05-15 17:51:00,
2013-05-15 13:57:00,66.7,40.3,29.89,West,270,0.0,0.0,38,0.00,,,0.00,pywws,2013-05-15 17:57:00,
2013-05-15 14:03:00,67.6,41.8,29.89,West,270,0.0,0.0,39,0.00,,,0.00,pywws,2013-05-15 18:03:00,
2013-05-15 14:08:00,64.9,38.0,29.89,SW,225,0.0,0.0,37,0.00,,,0.00,pywws,2013-05-15 18:08:00,
2013-05-15 14:14:00,63.5,37.4,29.89,SE,135,0.0,0.7,38,0.00,,,0.00,pywws,2013-05-15 18:14:00,
2013-05-15 14:19:00,63.1,38.4,29.89,South,180,0.0,0.0,40,0.00,,,0.00,pywws,2013-05-15 18:19:00,
2013-05-15 14:25:00,62.6,38.6,29.89,South,180,0.0,0.0,41,0.00,,,0.00,pywws,2013-05-15 18:25:00,
2013-05-15 14:32:00,61.9,38.5,29.88,South,180,0.0,0.0,42,0.00,,,0.00,pywws,2013-05-15 18:32:00,
2013-05-15 14:37:00,61.7,38.4,29.88,South,180,0.0,0.0,42,0.00,,,0.00,pywws,2013-05-15 18:37:00,
2013-05-15 14:43:00,62.1,39.9,29.88,SE,135,0.0,0.0,44,0.00,,,0.00,pywws,2013-05-15 18:43:00,
2013-05-15 14:48:00,61.9,39.1,29.88,West,270,1.6,9.2,43,0.00,,,0.00,pywws,2013-05-15 18:48:00,
2013-05-15 14:54:00,61.0,38.3,29.88,North,0,0.0,4.5,43,0.00,,,0.00,pywws,2013-05-15 18:54:00,
2013-05-15 14:59:00,60.8,39.3,29.89,West,270,0.0,0.7,45,0.00,,,0.00,pywws,2013-05-15 18:59:00,
2013-05-15 15:05:00,60.3,39.4,29.89,West,270,0.0,2.2,46,0.00,,,0.00,pywws,2013-05-15 19:05:00,
2013-05-15 15:11:00,59.9,39.6,29.88,South,180,0.0,0.0,47,0.00,,,0.00,pywws,2013-05-15 19:11:00,
2013-05-15 15:16:00,59.2,41.6,29.87,SW,225,0.0,2.2,52,0.00,,,0.00,pywws,2013-05-15 19:16:00,
2013-05-15 15:23:00,57.6,43.8,29.87,SE,135,0.0,0.0,60,0.00,,,0.00,pywws,2013-05-15 19:23:00,
2013-05-15 15:28:00,56.8,44.8,29.86,West,270,0.0,2.2,64,0.00,,,0.00,pywws,2013-05-15 19:28:00,
2013-05-15 15:34:00,56.7,45.4,29.86,West,270,0.0,0.0,66,0.00,,,0.00,pywws,2013-05-15 19:34:00,
2013-05-15 15:39:00,56.7,45.4,29.87,West,270,0.0,0.0,66,0.00,,,0.00,pywws,2013-05-15 19:39:00,
2013-05-15 15:44:00,56.7,45.8,29.87,West,270,0.0,0.0,67,0.00,,,0.00,pywws,2013-05-15 19:44:00,
2013-05-15 15:50:00,56.7,46.2,29.86,NW,315,0.0,0.0,68,0.00,,,0.00,pywws,2013-05-15 19:50:00,
2013-05-15 15:55:00,56.7,46.6,29.85,SE,135,0.0,0.0,69,0.01,,,0.01,pywws,2013-05-15 19:55:00,
2013-05-15 16:01:00,56.8,47.9,29.83,West,270,0.0,0.7,72,0.01,,,0.01,pywws,2013-05-15 20:01:00,
2013-05-15 16:06:00,58.3,50.4,29.83,West,270,0.0,0.0,75,0.02,,,0.02,pywws,2013-05-15 20:06:00,
2013-05-15 16:11:00,60.6,52.6,29.82,South,180,0.0,2.2,75,0.02,,,0.02,pywws,2013-05-15 20:11:00,
2013-05-15 16:17:00,57.9,50.0,29.81,West,270,0.0,3.1,75,0.02,,,0.02,pywws,2013-05-15 20:17:00,
2013-05-15 16:23:00,57.6,50.4,29.82,SE,135,0.0,0.0,77,0.02,,,0.02,pywws,2013-05-15 20:23:00,
2013-05-15 16:28:00,57.0,50.2,29.80,NW,315,0.0,0.0,78,0.02,,,0.02,pywws,2013-05-15 20:28:00,
2013-05-15 16:35:00,57.4,50.9,29.82,West,270,0.0,0.0,79,0.02,,,0.02,pywws,2013-05-15 20:35:00,
2013-05-15 16:40:00,56.7,50.2,29.80,West,270,0.0,0.0,79,0.02,,,0.02,pywws,2013-05-15 20:40:00,
2013-05-15 16:46:00,56.5,50.4,29.80,SW,225,0.0,1.6,80,0.02,,,0.02,pywws,2013-05-15 20:46:00,
2013-05-15 16:51:00,56.3,50.9,29.79,East,90,0.0,0.0,82,0.02,,,0.02,pywws,2013-05-15 20:51:00,
2013-05-15 16:57:00,55.8,51.3,29.78,SW,225,0.0,0.0,85,0.01,,,0.02,pywws,2013-05-15 20:57:00,
2013-05-15 17:03:00,54.9,50.4,29.78,SW,225,0.0,0.0,85,0.02,,,0.04,pywws,2013-05-15 21:03:00,
2013-05-15 17:08:00,54.9,50.8,29.78,West,270,0.0,0.0,86,0.01,,,0.04,pywws,2013-05-15 21:08:00,
2013-05-15 17:14:00,54.5,50.7,29.78,West,270,0.0,0.7,87,0.01,,,0.04,pywws,2013-05-15 21:14:00,
2013-05-15 17:20:00,54.3,50.8,29.78,South,180,0.0,0.0,88,0.01,,,0.04,pywws,2013-05-15 21:20:00,
2013-05-15 17:26:00,54.5,51.3,29.78,West,270,0.0,0.0,89,0.01,,,0.04,pywws,2013-05-15 21:26:00,
2013-05-15 17:31:00,54.7,51.8,29.78,West,270,0.0,0.0,90,0.01,,,0.04,pywws,2013-05-15 21:31:00,
2013-05-15 17:37:00,54.5,51.6,29.78,NW,315,0.0,0.0,90,0.01,,,0.04,pywws,2013-05-15 21:37:00,
2013-05-15 17:42:00,54.5,51.6,29.78,West,270,0.0,0.7,90,0.01,,,0.04,pywws,2013-05-15 21:42:00,
2013-05-15 17:47:00,54.7,51.8,29.76,South,180,0.0,0.0,90,0.01,,,0.04,pywws,2013-05-15 21:47:00,
2013-05-15 17:53:00,54.9,52.3,29.75,West,270,0.0,0.0,91,0.01,,,0.04,pywws,2013-05-15 21:53:00,
2013-05-15 17:59:00,54.9,52.3,29.75,South,180,0.0,2.2,91,0.01,,,0.04,pywws,2013-05-15 21:59:00,
2013-05-15 18:05:00,54.9,52.3,29.75,NE,45,0.0,0.0,91,0.00,,,0.04,pywws,2013-05-15 22:05:00,
2013-05-15 18:10:00,55.0,52.2,29.75,South,180,0.0,0.7,90,0.00,,,0.04,pywws,2013-05-15 22:10:00,
2013-05-15 18:15:00,55.0,51.9,29.75,SE,135,0.0,0.0,89,0.00,,,0.04,pywws,2013-05-15 22:15:00,
2013-05-15 18:21:00,55.0,51.9,29.74,South,180,0.0,0.0,89,0.00,,,0.04,pywws,2013-05-15 22:21:00,
2013-05-15 18:27:00,55.2,52.0,29.73,West,270,0.0,0.0,89,0.00,,,0.04,pywws,2013-05-15 22:27:00,
2013-05-15 18:32:00,55.2,52.0,29.74,West,270,0.0,0.0,89,0.00,,,0.04,pywws,2013-05-15 22:32:00,
2013-05-15 18:38:00,55.2,51.7,29.75,North,0,0.7,3.8,88,0.00,,,0.04,pywws,2013-05-15 22:38:00,
2013-05-15 18:43:00,55.2,51.7,29.76,North,0,0.0,0.0,88,0.00,,,0.04,pywws,2013-05-15 22:43:00,
2013-05-15 18:50:00,55.4,51.9,29.76,West,270,0.0,0.0,88,0.00,,,0.04,pywws,2013-05-15 22:50:00,
2013-05-15 18:55:00,55.4,51.9,29.75,South,180,0.0,0.0,88,0.00,,,0.04,pywws,2013-05-15 22:55:00,
2013-05-15 19:00:00,55.8,52.3,29.75,NE,45,0.0,2.2,88,0.00,,,0.04,pywws,2013-05-15 23:00:00,
2013-05-15 19:06:00,55.8,52.3,29.75,SW,225,0.0,0.0,88,0.00,,,0.04,pywws,2013-05-15 23:06:00,
2013-05-15 19:12:00,55.8,51.9,29.75,NW,315,0.0,0.0,87,0.00,,,0.04,pywws,2013-05-15 23:12:00,
2013-05-15 19:17:00,55.9,52.1,29.74,West,270,0.0,0.0,87,0.00,,,0.04,pywws,2013-05-15 23:17:00,
2013-05-15 19:23:00,55.9,52.1,29.75,North,0,0.0,0.0,87,0.00,,,0.04,pywws,2013-05-15 23:23:00,
2013-05-15 19:28:00,55.9,52.1,29.75,West,270,0.0,0.0,87,0.00,,,0.04,pywws,2013-05-15 23:28:00,
2013-05-15 19:34:00,55.9,52.1,29.75,East,90,0.0,0.0,87,0.00,,,0.04,pywws,2013-05-15 23:34:00,
2013-05-15 19:39:00,55.9,52.1,29.74,West,270,0.0,0.0,87,0.00,,,0.04,pywws,2013-05-15 23:39:00,
2013-05-15 19:45:00,56.1,52.3,29.74,West,270,0.0,0.7,87,0.00,,,0.04,pywws,2013-05-15 23:45:00,
2013-05-15 19:51:00,56.3,52.5,29.74,West,270,0.0,0.0,87,0.00,,,0.04,pywws,2013-05-15 23:51:00,
2013-05-15 19:56:00,56.3,52.5,29.74,West,270,0.0,0.0,87,0.00,,,0.04,pywws,2013-05-15 23:56:00,
2013-05-15 20:02:00,56.3,52.5,29.73,West,270,0.0,0.0,87,0.00,,,0.04,pywws,2013-05-16 00:02:00,
2013-05-15 20:08:00,56.1,52.3,29.72,South,180,0.0,0.7,87,0.00,,,0.04,pywws,2013-05-16 00:08:00,
2013-05-15 20:14:00,55.9,52.1,29.71,NW,315,0.0,0.0,87,0.00,,,0.04,pywws,2013-05-16 00:14:00,
2013-05-15 20:19:00,56.1,52.3,29.72,North,0,0.0,0.0,87,0.00,,,0.04,pywws,2013-05-16 00:19:00,
2013-05-15 20:24:00,55.9,51.8,29.72,West,270,0.0,0.0,86,0.00,,,0.04,pywws,2013-05-16 00:24:00,
2013-05-15 20:30:00,55.9,51.8,29.72,NW,315,0.0,0.0,86,0.00,,,0.04,pywws,2013-05-16 00:30:00,
2013-05-15 20:35:00,55.8,51.9,29.72,West,270,0.0,0.0,87,0.00,,,0.04,pywws,2013-05-16 00:35:00,
2013-05-15 20:41:00,55.8,51.9,29.72,West,270,0.0,0.0,87,0.00,,,0.04,pywws,2013-05-16 00:41:00,
2013-05-15 20:46:00,55.6,51.8,29.72,West,270,0.0,0.0,87,0.00,,,0.04,pywws,2013-05-16 00:46:00,
2013-05-15 20:52:00,55.6,51.8,29.72,SW,225,0.0,0.0,87,0.00,,,0.04,pywws,2013-05-16 00:52:00,
2013-05-15 20:58:00,55.4,51.6,29.72,West,270,0.0,0.0,87,0.00,,,0.04,pywws,2013-05-16 00:58:00,
2013-05-15 21:03:00,55.2,51.4,29.72,West,270,0.0,0.0,87,0.00,,,0.04,pywws,2013-05-16 01:03:00,
2013-05-15 21:08:00,54.9,51.1,29.72,West,270,0.0,0.0,87,0.00,,,0.04,pywws,2013-05-16 01:08:00,
2013-05-15 21:14:00,54.7,51.2,29.72,West,270,0.0,0.0,88,0.00,,,0.04,pywws,2013-05-16 01:14:00,
2013-05-15 21:19:00,54.7,51.2,29.72,West,270,0.0,0.0,88,0.00,,,0.04,pywws,2013-05-16 01:19:00,
2013-05-15 21:24:00,54.5,51.0,29.72,West,270,0.0,0.0,88,0.00,,,0.04,pywws,2013-05-16 01:24:00,
2013-05-15 21:30:00,54.3,51.1,29.72,West,270,0.0,0.0,89,0.00,,,0.04,pywws,2013-05-16 01:30:00,
2013-05-15 21:35:00,54.3,51.1,29.71,South,180,0.0,0.0,89,0.00,,,0.04,pywws,2013-05-16 01:35:00,
2013-05-15 21:40:00,54.3,51.4,29.71,South,180,0.0,0.0,90,0.00,,,0.04,pywws,2013-05-16 01:40:00,
2013-05-15 21:46:00,54.1,51.3,29.71,South,180,0.0,0.0,90,0.00,,,0.04,pywws,2013-05-16 01:46:00,
2013-05-15 21:53:00,54.1,51.6,29.72,South,180,0.0,0.0,91,0.00,,,0.04,pywws,2013-05-16 01:53:00,
2013-05-15 22:00:00,54.0,51.4,29.72,South,180,0.0,0.0,91,0.00,,,0.04,pywws,2013-05-16 02:00:00,
2013-05-15 22:05:00,53.6,51.0,29.71,South,180,0.0,0.0,91,0.00,,,0.04,pywws,2013-05-16 02:05:00,
2013-05-15 22:11:00,53.2,51.0,29.71,South,180,0.0,0.0,92,0.00,,,0.04,pywws,2013-05-16 02:11:00,
2013-05-15 22:18:00,53.2,51.0,29.71,West,270,0.0,0.0,92,0.00,,,0.04,pywws,2013-05-16 02:18:00,
2013-05-15 22:24:00,53.2,51.0,29.70,West,270,0.0,0.0,92,0.00,,,0.04,pywws,2013-05-16 02:24:00,
2013-05-15 22:31:00,53.2,51.3,29.71,West,270,0.0,0.0,93,0.00,,,0.04,pywws,2013-05-16 02:31:00,
2013-05-15 22:37:00,53.6,51.3,29.72,West,270,0.0,0.0,92,0.00,,,0.04,pywws,2013-05-16 02:37:00,
2013-05-15 22:42:00,53.6,51.6,29.72,West,270,0.0,0.0,93,0.00,,,0.04,pywws,2013-05-16 02:42:00,
2013-05-15 22:48:00,53.6,51.6,29.72,West,270,0.0,0.0,93,0.00,,,0.04,pywws,2013-05-16 02:48:00,
2013-05-15 22:53:00,53.6,51.6,29.72,West,270,0.0,0.0,93,0.00,,,0.04,pywws,2013-05-16 02:53:00,
2013-05-15 23:00:00,53.4,51.7,29.72,West,270,0.0,0.0,94,0.00,,,0.04,pywws,2013-05-16 03:00:00,
2013-05-15 23:06:00,53.4,51.7,29.71,South,180,0.0,0.0,94,0.00,,,0.04,pywws,2013-05-16 03:06:00,
2013-05-15 23:12:00,53.4,51.7,29.72,West,270,0.0,0.0,94,0.00,,,0.04,pywws,2013-05-16 03:12:00,
2013-05-15 23:18:00,53.4,51.7,29.71,West,270,0.0,0.0,94,0.00,,,0.04,pywws,2013-05-16 03:18:00,
2013-05-15 23:25:00,53.4,51.7,29.72,West,270,0.0,0.0,94,0.00,,,0.04,pywws,2013-05-16 03:25:00,
2013-05-15 23:30:00,53.4,51.7,29.71,West,270,0.0,0.0,94,0.00,,,0.04,pywws,2013-05-16 03:30:00,
2013-05-15 23:37:00,53.2,51.6,29.71,North,0,0.0,0.0,94,0.00,,,0.04,pywws,2013-05-16 03:37:00,
2013-05-15 23:44:00,53.4,51.7,29.70,East,90,0.0,0.0,94,0.00,,,0.04,pywws,2013-05-16 03:44:00,
2013-05-15 23:50:00,53.1,51.7,29.70,West,270,0.0,0.0,95,0.00,,,0.04,pywws,2013-05-16 03:50:00,
2013-05-15 23:55:00,53.2,51.8,29.70,SE,135,0.0,0.0,95,0.00,,,0.04,pywws,2013-05-16 03:55:00,